1488898800.56,14642,10.0,72642.5,-7.39,-11.51,-11.59,0,*50
1488898801.84,14643,10.0,72642.8,-7.39,-11.51,-11.37,0,*59
1488898803.1,14644,10.0,72644.3,-7.37,-11.51,-11.51,0,*50
1488898804.36,14645,10.0,72642.5,-7.39,-11.45,-11.37,0,*5A
1488898805.64,14646,10.0,72644.3,-7.39,-11.37,-11.33,0,*58
1488898806.92,14647,10.0,72646.3,-7.39,-11.81,-11.81,0,*5D
1488898808.21,14648,10.0,72646.0,-7.39,-11.81,-11.89,0,*5A
1488898809.49,14649,10.0,72642.8,-7.39,-11.89,-11.81,0,*5B
1488898810.77,14650,10.0,72646.5,-7.39,-11.81,-11.81,0,*5B
1488898812.06,14651,10.0,72644.5,-7.39,-11.93,-12.07,0,*54
1488898813.35,14652,10.0,72646.3,-7.39,-11.89,-11.77,0,*58
1488898814.63,14653,10.0,72644.5,-7.39,-11.73,-11.63,0,*59
1488898815.93,14654,10.0,72648.5,-7.39,-11.59,-11.63,0,*56
1488898817.19,14655,10.0,72646.5,-7.37,-11.59,-11.73,0,*58
1488898818.42,14656,10.0,72646.3,-7.37,-11.51,-11.45,0,*56
1488898819.66,14657,10.0,72646.8,-7.37,-11.45,-11.37,0,*57
1488898820.94,14658,10.0,72646.5,-7.39,-11.51,-11.59,0,*5B
1488898822.18,14659,10.0,72644.3,-7.37,-12.07,-12.29,0,*50
1488898823.4,14660,10.0,72638.8,-7.37,-12.21,-12.29,0,*5E
1488898824.69,14661,10.0,72638.8,-7.39,-12.15,-12.07,0,*5A
1488898825.96,14662,10.0,72640.3,-7.39,-12.03,-11.93,0,*50
1488898827.25,14663,10.0,72642.0,-7.39,-11.93,-11.89,0,*50
1488898828.55,14664,10.0,72640.5,-7.39,-11.93,-11.93,0,*5C
1488898829.83,14665,10.0,72646.3,-7.43,-11.85,-11.81,0,*54
1488898831.12,14666,10.0,72648.0,-7.43,-11.77,-11.67,0,*52
1488898832.4,14667,10.0,72646.3,-7.39,-11.77,-11.77,0,*5F
1488898833.65,14668,10.0,72642.8,-7.43,-12.25,-12.21,0,*59
1488898834.94,14669,10.0,72644.8,-7.43,-12.11,-12.11,0,*5C
1488898836.2,14670,10.0,72644.0,-7.39,-12.03,-11.89,0,*58
1488898837.49,14671,10.0,72644.0,-7.43,-12.07,-11.93,0,*5B
1488898838.77,14672,10.0,72644.0,-7.43,-11.81,-11.77,0,*5F
1488898840.03,14673,10.0,72644.3,-7.45,-11.81,-11.73,0,*5C
1488898841.31,14674,10.0,72646.3,-7.39,-11.73,-11.59,0,*55
1488898842.59,14675,10.0,72644.5,-7.39,-11.73,-11.59,0,*54
1488898843.89,14676,10.0,72644.0,-7.39,-11.63,-11.63,0,*5F
1488898845.17,14677,10.0,72644.8,-7.39,-11.77,-11.73,0,*5A
1488898846.46,14678,10.0,72646.5,-7.39,-11.73,-11.63,0,*50
1488898847.75,14679,10.0,72644.0,-7.39,-11.73,-11.63,0,*51
1488898849.04,14680,10.0,72644.0,-7.39,-11.59,-11.51,0,*5E
1488898850.32,14681,10.0,72644.8,-7.39,-11.59,-11.51,0,*5F
1488898851.61,14682,10.0,72644.0,-7.39,-11.63,-11.59,0,*5D
1488898852.9,14683,10.0,72646.8,-7.39,-11.59,-11.51,0,*5D
1488898854.16,14684,10.0,72646.3,-7.37,-11.59,-11.51,0,*54
1488898855.42,14685,10.0,72644.3,-7.37,-11.59,-11.51,0,*55
1488898856.7,14686,10.0,72648.3,-7.39,-11.59,-11.33,0,*5C
1488898857.95,14687,10.0,72644.5,-7.37,-11.51,-11.33,0,*5B
1488898859.21,14688,10.0,72650.8,-7.37,-11.51,-11.37,0,*50
1488898860.45,14689,10.0,72650.3,-7.37,-11.59,-11.45,0,*5C
1488898861.71,14690,10.0,72646.5,-7.37,-11.59,-11.51,0,*51
1488898862.94,14691,10.0,72650.8,-7.37,-11.63,-11.45,0,*5C
1488898864.23,14692,10.0,72648.5,-7.35,-11.59,-11.51,0,*51
1488898865.52,14693,10.0,72646.3,-7.35,-11.63,-11.51,0,*59
1488898866.81,14694,10.0,72644.8,-7.35,-11.59,-11.37,0,*57
1488898868.07,14695,10.0,72650.5,-7.35,-11.63,-11.45,0,*5A
1488898869.33,14696,10.0,72648.8,-7.35,-11.59,-11.23,0,*50
1488898870.6,14697,10.0,72644.0,-7.35,-11.59,-11.45,0,*51
1488898871.89,14698,10.0,72650.0,-7.35,-11.59,-11.59,0,*53
1488898873.12,14699,10.0,72644.5,-7.33,-11.55,-11.45,0,*55
1488898874.38,14700,10.0,72650.5,-7.35,-11.51,-11.45,0,*56
1488898875.67,14701,10.0,72648.5,-7.35,-11.59,-11.59,0,*52
1488898876.94,14702,10.0,72644.3,-7.33,-11.77,-11.89,0,*56
1488898878.22,14703,10.0,72642.0,-7.35,-12.07,-12.15,0,*53
1488898879.51,14704,10.0,72640.8,-7.35,-11.89,-11.89,0,*57
1488898880.77,14705,10.0,72644.3,-7.37,-11.81,-11.77,0,*5D
1488898882.03,14706,10.0,72646.5,-7.37,-11.89,-11.63,0,*53
1488898883.24,14707,10.0,72646.8,-7.37,-12.03,-12.03,0,*56
1488898884.51,14708,10.0,72646.5,-7.39,-12.29,-12.35,0,*5A
1488898885.77,14709,10.0,72648.3,-7.37,-12.07,-11.93,0,*56
1488898887.05,14710,10.0,72648.3,-7.39,-11.81,-11.77,0,*57
1488898888.31,14711,10.0,72646.3,-7.37,-11.81,-11.63,0,*5D
1488898889.58,14712,10.0,72646.0,-7.37,-11.73,-11.63,0,*53
1488898890.84,14713,10.0,72644.8,-7.37,-11.59,-11.51,0,*5B
1488898892.12,14714,10.0,72642.5,-7.39,-11.77,-11.59,0,*56
1488898893.38,14715,10.0,72644.0,-7.37,-11.73,-11.59,0,*5D
1488898894.63,14716,10.0,72646.0,-7.37,-11.81,-11.73,0,*5B
1488898895.89,14717,10.0,72646.0,-7.37,-11.81,-11.73,0,*5A
1488898897.17,14718,10.0,72644.3,-7.39,-11.81,-11.77,0,*5F
1488898898.43,14719,10.0,72644.3,-7.37,-11.73,-11.63,0,*58
1488898899.72,14720,10.0,72644.8,-7.39,-11.59,-11.59,0,*5D
1488898900.93,14721,10.0,72644.0,-7.37,-12.03,-12.03,0,*52
1488898902.16,14722,10.0,72644.0,-7.37,-12.07,-12.03,0,*55
1488898903.4,14723,10.0,72644.5,-7.37,-12.03,-11.89,0,*51
1488898904.7,14724,10.0,72642.8,-7.39,-11.93,-11.89,0,*52
1488898905.95,14725,10.0,72640.8,-7.37,-11.73,-11.59,0,*5E
1488898907.23,14726,10.0,72642.5,-7.39,-11.81,-11.73,0,*56
1488898908.49,14727,10.0,72638.8,-7.37,-11.81,-11.77,0,*5D
1488898909.78,14728,10.0,72640.5,-7.39,-11.63,-11.63,0,*55
1488898911.07,14729,10.0,72644.3,-7.39,-11.63,-11.51,0,*55
1488898912.33,14730,10.0,72646.0,-7.37,-11.59,-11.51,0,*5A
1488898913.62,14731,10.0,72646.8,-7.39,-11.63,-11.63,0,*5D
1488898914.91,14732,10.0,72646.3,-7.39,-11.81,-11.89,0,*56
1488898916.19,14733,10.0,72640.5,-7.39,-11.81,-11.73,0,*52
1488898917.47,14734,10.0,72646.5,-7.39,-11.81,-11.73,0,*55
1488898918.73,14735,10.0,72646.3,-7.37,-11.81,-11.77,0,*5E
1488898920.01,14736,10.0,72644.5,-7.39,-11.73,-11.63,0,*5B
1488898921.3,14737,10.0,72650.8,-7.39,-11.59,-11.59,0,*5B
1488898922.59,14738,10.0,72644.0,-7.39,-11.59,-11.59,0,*54
1488898923.88,14739,10.0,72644.8,-7.39,-11.63,-11.59,0,*5C
1488898925.16,14740,10.0,72642.8,-7.39,-11.77,-11.73,0,*5F
1488898926.45,14741,10.0,72640.8,-7.39,-11.89,-11.81,0,*52
1488898927.71,14742,10.0,72642.0,-7.39,-11.59,-11.45,0,*54
1488898929.0,14743,10.0,72644.8,-7.39,-11.59,-11.51,0,*50
1488898930.28,14744,10.0,72646.0,-7.39,-11.59,-11.59,0,*5F
1488898931.55,14745,10.0,72644.8,-7.37,-11.59,-11.51,0,*58
1488898932.79,14746,10.0,72650.0,-7.39,-11.45,-11.45,0,*5D
1488898934.07,14747,10.0,72644.5,-7.39,-11.51,-11.51,0,*5C
1488898935.31,14748,10.0,72644.5,-7.37,-11.59,-11.45,0,*50
1488898936.57,14749,10.0,72646.3,-7.37,-11.77,-11.63,0,*59
1488898937.83,14750,10.0,72642.3,-7.37,-11.89,-11.81,0,*5C
1488898939.09,14751,10.0,72644.0,-7.37,-11.81,-11.63,0,*59
1488898940.35,14752,10.0,72642.8,-7.37,-11.77,-11.73,0,*52
1488898941.57,14753,10.0,72642.8,-7.37,-12.29,-12.29,0,*57
1488898942.83,14754,10.0,72640.8,-7.39,-12.29,-12.07,0,*52
1488898944.12,14755,10.0,72642.0,-7.39,-11.93,-11.81,0,*5C
1488898945.41,14756,10.0,72642.5,-7.39,-12.07,-11.93,0,*52
1488898946.71,14757,10.0,72640.8,-7.39,-11.93,-11.89,0,*56
1488898948.0,14758,10.0,72640.8,-7.39,-11.93,-11.77,0,*58
1488898949.29,14759,10.0,72642.8,-7.43,-11.85,-11.85,0,*5E
1488898950.58,14760,10.0,72642.8,-7.43,-12.07,-12.07,0,*54
1488898951.86,14761,10.0,72640.0,-7.43,-11.81,-11.67,0,*5D
1488898953.14,14762,10.0,72642.0,-7.43,-11.77,-11.81,0,*5F
1488898954.39,14763,10.0,72640.3,-7.39,-12.29,-12.21,0,*52
1488898955.65,14764,10.0,72642.3,-7.39,-12.03,-11.89,0,*5C
1488898956.94,14765,10.0,72642.8,-7.43,-11.93,-11.81,0,*52
1488898958.22,14766,10.0,72642.8,-7.43,-11.81,-11.85,0,*56
1488898959.51,14767,10.0,72642.5,-7.43,-11.85,-11.85,0,*53
1488898960.8,14768,10.0,72640.3,-7.43,-11.93,-11.85,0,*5B
1488898962.09,14769,10.0,72638.8,-7.43,-11.97,-11.93,0,*59
1488898963.35,14770,10.0,72640.0,-7.45,-12.15,-12.15,0,*53
1488898964.59,14771,10.0,72638.5,-7.45,-12.03,-12.11,0,*51
1488898965.82,14772,10.0,72642.8,-7.45,-11.89,-12.03,0,*50
1488898967.06,14773,10.0,72640.5,-7.45,-12.03,-11.97,0,*5E
1488898968.32,14774,10.0,72640.0,-7.45,-11.89,-11.89,0,*57
1488898969.6,14775,10.0,72642.5,-7.43,-11.77,-11.81,0,*59
1488898970.89,14776,10.0,72642.3,-7.43,-11.85,-11.85,0,*53
1488898972.13,14777,10.0,72638.8,-7.45,-11.85,-12.03,0,*59
1488898973.38,14778,10.0,72642.8,-7.45,-11.97,-11.97,0,*5B
1488898974.65,14779,10.0,72640.0,-7.45,-12.11,-12.11,0,*5A
1488898975.89,14780,10.0,72640.0,-7.47,-12.03,-12.03,0,*5E
1488898977.17,14781,10.0,72636.3,-7.47,-11.73,-11.73,0,*5F
1488898978.46,14782,10.0,72642.3,-7.47,-11.85,-11.85,0,*5C
1488898979.75,14783,10.0,72642.5,-7.47,-11.89,-11.85,0,*51
1488898981.04,14784,10.0,72640.8,-7.47,-11.85,-11.85,0,*5A
1488898982.3,14785,10.0,72644.3,-7.47,-11.85,-12.03,0,*56
1488898983.59,14786,10.0,72642.8,-7.47,-11.81,-11.89,0,*50
1488898984.88,14787,10.0,72644.3,-7.47,-11.81,-11.97,0,*5E
1488898986.17,14788,10.0,72640.3,-7.47,-11.67,-11.81,0,*5E
1488898987.43,14789,10.0,72646.5,-7.49,-11.73,-11.93,0,*57
1488898988.72,14790,10.0,72646.5,-7.47,-11.59,-11.73,0,*57
1488898989.99,14791,10.0,72646.5,-7.47,-11.41,-11.59,0,*57
1488898991.26,14792,10.0,72646.3,-7.47,-11.45,-11.67,0,*5D
1488898992.55,14793,10.0,72644.3,-7.47,-11.55,-11.67,0,*5D
1488898993.82,14794,10.0,72642.3,-7.47,-11.33,-11.45,0,*5A
1488898995.09,14795,10.0,72646.3,-7.47,-11.41,-11.67,0,*5E
1488898996.38,14796,10.0,72646.0,-7.47,-11.29,-11.55,0,*52
1488898997.62,14797,10.0,72642.3,-7.47,-11.19,-11.45,0,*51
1488898998.92,14798,10.0,72644.8,-7.47,-11.29,-11.55,0,*5C
1488899000.17,14799,10.0,72646.5,-7.47,-11.15,-11.33,0,*52
1488899001.41,14800,10.0,72642.0,-7.47,-11.19,-11.45,0,*50
1488899002.7,14801,10.0,72646.3,-7.47,-11.07,-11.37,0,*5B
1488899003.91,14802,10.0,72644.0,-7.45,-11.01,-11.19,0,*50
1488899005.15,14803,10.0,72644.0,-7.45,-10.97,-11.29,0,*5C
1488899006.39,14804,10.0,72648.0,-7.43,-11.11,-11.23,0,*58
1488899007.66,14805,10.0,72646.0,-7.45,-11.29,-11.55,0,*55
1488899008.92,14806,10.0,72642.5,-7.45,-11.55,-11.67,0,*5C
1488899010.18,14807,10.0,72644.3,-7.45,-11.67,-11.89,0,*5C
1488899011.44,14808,10.0,72642.3,-7.45,-11.67,-11.97,0,*5C
1488899012.74,14809,10.0,72642.3,-7.43,-11.63,-11.67,0,*50
1488899014.0,14810,10.0,72646.0,-7.45,-11.55,-11.73,0,*5E
1488899015.24,14811,10.0,72644.0,-7.45,-11.29,-11.45,0,*51
1488899016.48,14812,10.0,72642.3,-7.45,-11.29,-11.41,0,*56
1488899017.72,14813,10.0,72644.3,-7.43,-11.15,-11.41,0,*5E
1488899019.01,14814,10.0,72644.3,-7.43,-11.29,-11.51,0,*57
1488899020.3,14815,10.0,72646.3,-7.43,-11.37,-11.63,0,*58
1488899021.54,14816,10.0,72640.5,-7.45,-11.45,-11.67,0,*5C
1488899022.81,14817,10.0,72640.3,-7.45,-11.59,-11.89,0,*50
1488899024.07,14818,10.0,72640.3,-7.45,-11.67,-11.97,0,*5D
1488899025.3,14819,10.0,72642.8,-7.45,-11.81,-12.03,0,*5A
1488899026.56,14820,10.0,72642.0,-7.45,-11.81,-12.11,0,*53
1488899027.79,14821,10.0,72640.8,-7.45,-11.81,-12.03,0,*51
1488899029.0,14822,10.0,72640.0,-7.45,-12.03,-12.43,0,*5F
1488899030.24,14823,10.0,72640.0,-7.45,-12.11,-12.39,0,*50
1488899031.5,14824,10.0,72646.8,-7.45,-11.85,-11.97,0,*5E
1488899032.79,14825,10.0,72642.8,-7.47,-11.67,-11.85,0,*52
1488899034.08,14826,10.0,72640.0,-7.47,-11.85,-12.15,0,*57
1488899035.34,14827,10.0,72638.3,-7.47,-12.11,-12.43,0,*5B
1488899036.63,14828,10.0,72642.0,-7.47,-11.81,-11.97,0,*54
1488899037.92,14829,10.0,72642.0,-7.47,-11.59,-11.73,0,*5A
1488899039.2,14830,10.0,72638.8,-7.47,-11.81,-12.15,0,*54
1488899040.49,14831,10.0,72642.0,-7.47,-11.67,-11.97,0,*54
1488899041.78,14832,10.0,72644.5,-7.47,-11.59,-11.85,0,*59
1488899043.05,14833,10.0,72642.5,-7.49,-11.59,-11.89,0,*5A
1488899044.29,14834,10.0,72644.3,-7.49,-11.73,-12.03,0,*54
1488899045.58,14835,10.0,72644.0,-7.47,-11.67,-11.97,0,*50
1488899046.85,14836,10.0,72642.3,-7.49,-11.59,-11.89,0,*5F
1488899048.14,14837,10.0,72636.3,-7.47,-11.59,-11.97,0,*5F
1488899049.42,14838,10.0,72636.8,-7.47,-11.81,-12.15,0,*5C
1488899050.71,14839,10.0,72642.5,-7.47,-11.85,-12.15,0,*59
1488899051.95,14840,10.0,72638.5,-7.49,-11.85,-12.21,0,*5E
1488899053.21,14841,10.0,72642.8,-7.47,-11.81,-12.25,0,*51
1488899054.5,14842,10.0,72640.8,-7.47,-11.81,-12.11,0,*55
1488899055.74,14843,10.0,72642.8,-7.49,-11.85,-12.21,0,*5D
1488899057.03,14844,10.0,72642.5,-7.47,-11.73,-12.11,0,*5E
1488899058.32,14845,10.0,72644.5,-7.47,-11.73,-12.11,0,*5F
1488899059.58,14846,10.0,72648.3,-7.49,-11.73,-12.07,0,*55
1488899060.84,14847,10.0,72644.5,-7.47,-11.85,-12.43,0,*53
1488899062.11,14848,10.0,72644.5,-7.47,-11.89,-12.43,0,*50
1488899063.37,14849,10.0,72644.3,-7.47,-11.97,-12.43,0,*5E
1488899064.61,14850,10.0,72640.3,-7.49,-11.73,-12.21,0,*56
1488899065.85,14851,10.0,72646.3,-7.49,-12.03,-12.57,0,*52
1488899067.08,14852,10.0,72646.0,-7.49,-12.03,-12.61,0,*54
1488899068.32,14853,10.0,72646.5,-7.49,-11.85,-12.43,0,*58
1488899069.56,14854,10.0,72642.0,-7.49,-11.77,-12.47,0,*56
1488899070.86,14855,10.0,72646.0,-7.47,-11.97,-12.71,0,*52
1488899072.15,14856,10.0,72644.3,-7.47,-11.97,-12.53,0,*51
1488899073.41,14857,10.0,72646.0,-7.47,-11.81,-12.39,0,*5B
1488899074.7,14858,10.0,72644.5,-7.47,-11.81,-12.57,0,*5C
1488899075.96,14859,10.0,72646.3,-7.49,-12.07,-12.79,0,*52
1488899077.23,14860,10.0,72640.0,-7.51,-12.03,-12.61,0,*5C
1488899078.52,14861,10.0,72646.0,-7.51,-11.89,-12.61,0,*5C
1488899079.81,14862,10.0,72642.8,-7.51,-11.85,-12.61,0,*53
1488899081.07,14863,10.0,72640.3,-7.51,-11.73,-12.47,0,*5F
1488899082.37,14864,10.0,72642.3,-7.51,-11.63,-12.35,0,*5C
1488899083.63,14865,10.0,72642.5,-7.51,-11.73,-12.47,0,*59
1488899084.89,14866,10.0,72644.0,-7.51,-11.73,-12.47,0,*5A
1488899086.16,14867,10.06,72644.8,-7.51,-11.73,-12.47,0,*5B
1488899087.45,14868,10.0,72640.8,-7.51,-11.85,-12.79,0,*50
1488899088.75,14869,10.0,72638.3,-7.51,-11.93,-12.75,0,*5A
1488899089.99,14870,10.0,72640.5,-7.49,-12.03,-12.75,0,*51
1488899091.25,14871,10.0,72640.3,-7.49,-11.85,-12.61,0,*58
1488899092.52,14872,10.0,72642.8,-7.49,-11.89,-12.57,0,*52
1488899093.8,14873,10.0,72642.0,-7.47,-11.85,-12.57,0,*51
1488899095.07,14874,10.06,72648.3,-7.49,-11.73,-12.57,0,*51
1488899096.36,14875,10.0,72644.3,-7.47,-11.67,-12.53,0,*5F
1488899097.6,14876,10.0,72642.8,-7.49,-11.89,-12.89,0,*55
1488899098.83,14877,10.0,72644.3,-7.49,-12.15,-13.07,0,*55
1488899100.1,14878,10.0,72642.0,-7.47,-12.15,-13.11,0,*53
1488899101.31,14879,10.0,72644.3,-7.49,-12.29,-13.15,0,*57
1488899102.55,14880,10.0,72644.5,-7.47,-12.03,-12.89,0,*53
1488899103.82,14881,10.0,72646.8,-7.47,-12.03,-12.75,0,*51
1488899105.11,14882,10.0,72644.3,-7.47,-11.89,-12.65,0,*52
1488899106.35,14883,10.0,72644.3,-7.49,-12.07,-12.89,0,*5A
1488899107.59,14884,10.0,72642.0,-7.47,-12.25,-12.97,0,*5C
1488899108.81,14885,10.0,72642.8,-7.45,-12.43,-13.19,0,*58
1488899110.04,14886,10.0,72642.8,-7.49,-12.39,-13.01,0,*53
1488899111.28,14887,10.0,72638.8,-7.49,-12.29,-12.79,0,*5D
1488899112.51,14888,10.0,72644.3,-7.49,-12.43,-13.01,0,*50
1488899113.78,14889,10.0,72642.8,-7.47,-12.71,-13.55,0,*5F
1488899115.06,14890,10.0,72644.3,-7.47,-13.01,-13.87,0,*5E
1488899116.3,14891,10.0,72640.8,-7.49,-12.75,-13.43,0,*5B
1488899117.59,14892,10.0,72642.5,-7.47,-12.65,-13.29,0,*5B
1488899118.81,14893,10.0,72642.0,-7.49,-12.47,-13.19,0,*57
1488899120.05,14894,10.0,72644.3,-7.49,-12.43,-12.79,0,*53
1488899121.28,14895,10.0,72644.0,-7.49,-12.47,-13.01,0,*58
1488899122.51,14896,10.0,72646.5,-7.49,-12.71,-13.43,0,*58
1488899123.75,14897,10.0,72642.5,-7.49,-12.75,-13.47,0,*59
1488899124.96,14898,10.0,72644.0,-7.49,-12.89,-13.55,0,*56
1488899126.22,14899,10.0,72644.5,-7.47,-12.71,-13.15,0,*5A
1488899127.48,14900,10.0,72644.0,-7.47,-12.57,-13.15,0,*5F
1488899128.7,14901,10.0,72640.3,-7.49,-12.89,-13.19,0,*5F
1488899129.92,14902,10.0,72642.3,-7.49,-12.47,-12.89,0,*56
1488899131.12,14903,10.0,72642.0,-7.49,-13.15,-13.47,0,*52
1488899132.35,14904,10.0,72646.8,-7.49,-12.79,-13.15,0,*59
1488899133.62,14905,10.0,72644.0,-7.47,-12.53,-13.11,0,*5A
1488899134.85,14906,10.0,72646.5,-7.49,-12.61,-13.07,0,*51
1488899136.12,14907,10.0,72646.5,-7.47,-12.57,-12.89,0,*5C
1488899137.35,14908,10.0,72644.8,-7.49,-12.57,-13.15,0,*59
1488899138.59,14909,10.0,72640.5,-7.49,-12.65,-13.19,0,*55
1488899139.83,14910,10.0,72644.5,-7.49,-12.75,-13.15,0,*50
1488899141.07,14911,10.0,72644.0,-7.49,-12.75,-13.07,0,*52
1488899142.36,14912,10.0,72644.3,-7.47,-12.53,-12.83,0,*56
1488899143.6,14913,10.0,72644.3,-7.49,-12.57,-12.93,0,*5C
1488899144.89,14914,10.0,72644.0,-7.47,-12.75,-13.01,0,*5F
1488899146.13,14915,10.0,72644.5,-7.47,-12.97,-13.15,0,*57
1488899147.42,14916,10.0,72640.8,-7.47,-12.57,-12.83,0,*56
1488899148.65,14917,10.0,72646.5,-7.49,-12.61,-12.89,0,*56
1488899149.94,14918,10.0,72644.0,-7.47,-12.53,-12.65,0,*54
1488899151.24,14919,10.0,72648.0,-7.47,-12.53,-12.71,0,*50
1488899152.53,14920,10.0,72644.3,-7.47,-12.53,-12.83,0,*57
1488899153.77,14921,10.0,72640.8,-7.45,-12.65,-12.89,0,*5B
1488899155.01,14922,10.0,72646.5,-7.45,-12.75,-12.97,0,*56
1488899156.28,14923,10.0,72644.8,-7.47,-12.65,-12.89,0,*5B
1488899157.57,14924,10.0,72644.3,-7.43,-12.53,-12.71,0,*5A
1488899158.83,14925,10.0,72646.5,-7.45,-12.75,-13.01,0,*5F
1488899160.04,14926,10.0,72644.8,-7.45,-13.11,-13.23,0,*5F
1488899161.27,14927,10.0,72640.5,-7.45,-13.23,-13.37,0,*5A
1488899162.53,14928,10.0,72644.3,-7.45,-13.29,-13.29,0,*50
1488899163.77,14929,10.0,72644.8,-7.45,-12.89,-12.75,0,*52
1488899165.04,14930,10.0,72642.5,-7.45,-12.71,-12.75,0,*5D
1488899166.3,14931,10.0,72646.5,-7.45,-12.65,-12.71,0,*5D
1488899167.56,14932,10.0,72642.3,-7.45,-12.65,-12.65,0,*5B
1488899168.82,14933,10.0,72648.3,-7.45,-12.57,-12.57,0,*5A
1488899170.05,14934,10.0,72644.5,-7.47,-12.39,-12.43,0,*52
1488899171.29,14935,10.0,72646.5,-7.47,-12.39,-12.39,0,*5E
1488899172.5,14936,10.0,72644.3,-7.45,-12.39,-12.43,0,*52
1488899173.79,14937,10.06,72650.0,-7.43,-12.53,-12.65,0,*5D
1488899175.02,14938,10.0,72646.8,-7.45,-12.89,-12.75,0,*52
1488899176.29,14939,10.0,72648.5,-7.45,-12.57,-12.53,0,*54
1488899177.58,14940,10.0,72646.8,-7.43,-12.79,-12.79,0,*58
1488899178.87,14941,10.0,72646.5,-7.43,-12.71,-12.71,0,*59
1488899180.13,14942,10.0,72644.3,-7.45,-12.71,-12.57,0,*58
1488899181.37,14943,10.0,72646.0,-7.43,-12.47,-12.39,0,*52
1488899182.65,14944,10.0,72648.5,-7.43,-12.61,-12.61,0,*5C
1488899183.89,14945,10.0,72648.8,-7.43,-13.11,-13.07,0,*5A
1488899185.18,14946,10.0,72644.8,-7.43,-13.37,-13.33,0,*5A
1488899186.41,14947,10.0,72644.8,-7.45,-13.43,-13.29,0,*55
1488899187.67,14948,10.0,72644.8,-7.43,-13.19,-13.01,0,*59
1488899188.91,14949,10.0,72644.3,-7.43,-13.11,-12.97,0,*5E
1488899190.14,14950,10.0,72648.0,-7.45,-13.23,-13.01,0,*5F
1488899191.41,14951,10.0,72646.8,-7.43,-12.71,-12.47,0,*5D
1488899192.67,14952,10.0,72648.3,-7.45,-12.83,-12.71,0,*50
1488899193.93,14953,10.0,72644.5,-7.43,-13.07,-12.83,0,*57
1488899195.19,14954,10.0,72646.8,-7.45,-13.37,-13.01,0,*5E
1488899196.42,14955,10.06,72650.0,-7.45,-13.15,-12.75,0,*5D
1488899197.66,14956,10.0,72648.0,-7.45,-12.97,-12.75,0,*55
1488899198.87,14957,10.0,72644.8,-7.45,-13.15,-12.89,0,*5C
1488899200.14,14958,10.0,72648.8,-7.45,-13.01,-12.71,0,*51
1488899201.4,14959,10.0,72646.5,-7.45,-13.01,-12.75,0,*54
1488899202.66,14960,10.0,72648.3,-7.45,-13.01,-12.57,0,*5E
1488899203.92,14961,10.0,72648.3,-7.43,-12.97,-12.65,0,*56
1488899205.13,14962,10.0,72646.5,-7.45,-13.15,-12.89,0,*5A
1488899206.35,14963,10.0,72644.8,-7.45,-13.51,-13.11,0,*5B
1488899207.56,14964,10.0,72644.8,-7.45,-13.51,-13.11,0,*5C
1488899208.83,14965,10.0,72644.8,-7.43,-13.23,-12.79,0,*51
1488899210.07,14966,10.0,72646.0,-7.45,-12.83,-12.39,0,*5B
1488899211.3,14967,10.0,72648.5,-7.45,-12.75,-12.43,0,*5E
1488899212.54,14968,10.0,72644.5,-7.45,-12.71,-12.43,0,*55
1488899213.78,14969,10.0,72648.0,-7.45,-12.65,-12.29,0,*5D
1488899215.01,14970,10.0,72650.3,-7.45,-12.65,-12.39,0,*54
1488899216.3,14971,10.0,72650.0,-7.43,-12.61,-12.35,0,*5B
1488899217.56,14972,10.0,72648.3,-7.43,-12.79,-12.39,0,*5D
1488899218.83,14973,10.0,72646.3,-7.43,-13.11,-12.79,0,*57
1488899220.1,14974,10.0,72648.5,-7.43,-13.19,-12.71,0,*50
1488899221.34,14975,10.0,72648.0,-7.45,-12.97,-12.53,0,*50
1488899222.6,14976,10.0,72650.8,-7.43,-12.61,-12.21,0,*59
1488899223.86,14977,10.0,72650.3,-7.43,-12.61,-12.25,0,*5C
1488899225.15,14978,10.0,72648.8,-7.43,-12.61,-12.07,0,*53
1488899226.43,14979,10.0,72650.3,-7.43,-12.61,-12.07,0,*52
1488899227.7,14980,10.0,72648.3,-7.43,-12.39,-12.07,0,*59
1488899228.96,14981,10.0,72648.5,-7.43,-12.39,-12.07,0,*58
1488899230.24,14982,10.0,72648.5,-7.39,-12.57,-12.07,0,*5E
1488899231.51,14983,10.0,72648.8,-7.39,-12.47,-12.15,0,*5D
1488899232.77,14984,10.0,72648.5,-7.43,-12.61,-12.21,0,*54
1488899234.03,14985,10.0,72650.8,-7.43,-12.47,-12.07,0,*55
1488899235.3,14986,10.0,72646.8,-7.39,-12.35,-12.03,0,*5A
1488899236.56,14987,10.0,72650.8,-7.39,-12.43,-11.93,0,*50
1488899237.82,14988,10.0,72650.3,-7.39,-12.57,-12.03,0,*50
1488899239.09,14989,10.0,72648.8,-7.39,-12.79,-12.21,0,*5D
1488899240.33,14990,10.0,72648.8,-7.37,-12.75,-12.03,0,*57
1488899241.61,14991,10.0,72648.3,-7.39,-12.65,-11.93,0,*53
1488899242.91,14992,10.0,72646.0,-7.39,-12.75,-12.07,0,*5F
1488899244.19,14993,10.0,72648.8,-7.39,-12.79,-12.07,0,*52
1488899245.48,14994,10.0,72650.0,-7.39,-12.75,-12.07,0,*59
1488899246.72,14995,10.0,72648.3,-7.37,-12.65,-12.29,0,*5B
1488899247.96,14996,10.0,72652.3,-7.37,-12.75,-12.21,0,*51
1488899249.23,14997,10.0,72648.8,-7.39,-12.75,-12.03,0,*5E
1488899250.52,14998,10.0,72652.3,-7.39,-12.65,-11.89,0,*51
1488899251.78,14999,10.0,72648.3,-7.37,-12.61,-11.93,0,*51
1488899253.04,15000,10.0,72648.5,-7.37,-12.75,-12.07,0,*52
1488899254.28,15001,10.0,72648.0,-7.37,-12.93,-12.07,0,*5B
1488899255.54,15002,10.0,72646.0,-7.39,-12.79,-12.03,0,*56
1488899256.81,15003,10.0,72648.3,-7.37,-12.75,-11.93,0,*5F
1488899258.02,15004,10.0,72648.8,-7.37,-13.07,-12.21,0,*56
1488899259.28,15005,10.0,72646.5,-7.39,-12.93,-12.15,0,*52
1488899260.5,15006,10.0,72648.0,-7.37,-12.93,-12.21,0,*58
1488899261.7,15007,10.0,72644.3,-7.37,-13.15,-12.47,0,*56
1488899262.91,15008,10.0,72648.5,-7.37,-13.15,-12.43,0,*5D
1488899264.12,15009,10.0,72648.0,-7.37,-12.89,-12.21,0,*5C
1488899265.39,15010,10.0,72648.3,-7.37,-12.75,-12.07,0,*53
1488899266.63,15011,10.0,72650.0,-7.37,-12.29,-11.63,0,*5A
1488899267.87,15012,10.0,72648.0,-7.37,-12.21,-11.59,0,*58
1488899269.11,15013,10.0,72648.3,-7.37,-12.21,-11.59,0,*59
1488899270.37,15014,10.0,72646.0,-7.37,-12.15,-11.59,0,*59
1488899271.63,15015,10.0,72650.5,-7.37,-12.07,-11.51,0,*53
1488899272.89,15016,10.0,72646.0,-7.37,-12.07,-11.59,0,*58
1488899274.16,15017,10.0,72644.8,-7.37,-12.07,-11.63,0,*50
1488899275.42,15018,10.0,72650.3,-7.37,-12.07,-11.63,0,*5F
1488899276.69,15019,10.0,72648.8,-7.37,-12.07,-11.63,0,*5E
1488899277.95,15020,10.0,72650.8,-7.37,-12.07,-11.59,0,*5D
1488899279.21,15021,10.0,72650.5,-7.37,-12.07,-11.51,0,*54
1488899280.44,15022,10.0,72648.0,-7.37,-12.03,-11.59,0,*5B
1488899281.68,15023,10.0,72644.3,-7.35,-12.03,-11.45,0,*55
1488899282.89,15024,10.0,72648.5,-7.33,-12.03,-11.45,0,*54
1488899284.18,15025,10.0,72646.8,-7.35,-12.07,-11.51,0,*52
1488899285.43,15026,10.0,72644.8,-7.35,-11.81,-11.23,0,*59
1488899286.72,15027,10.0,72646.3,-7.35,-11.77,-11.33,0,*50
1488899288.0,15028,10.0,72648.8,-7.35,-11.81,-11.59,0,*5A
1488899289.26,15029,10.0,72648.8,-7.33,-11.85,-11.55,0,*55
1488899290.54,15030,10.0,72646.8,-7.35,-11.89,-11.51,0,*53
1488899291.83,15031,10.0,72650.0,-7.35,-11.77,-11.37,0,*53
1488899293.11,15032,10.0,72650.0,-7.35,-11.77,-11.33,0,*54
1488899294.37,15033,10.0,72650.5,-7.35,-11.73,-11.23,0,*50
1488899295.61,15034,10.0,72646.0,-7.33,-11.59,-11.15,0,*5C
1488899296.84,15035,10.0,72646.8,-7.33,-11.59,-11.19,0,*51
1488899298.12,15036,10.0,72650.8,-7.35,-11.73,-11.37,0,*50
1488899299.38,15037,10.0,72648.5,-7.33,-11.97,-11.73,0,*5D
1488899300.68,15038,10.0,72644.3,-7.35,-12.07,-11.63,0,*5F
1488899301.97,15039,10.0,72648.8,-7.35,-11.93,-11.59,0,*59
1488899303.25,15040,10.0,72648.5,-7.35,-11.81,-11.59,0,*54
1488899304.49,15041,10.0,72646.5,-7.33,-11.77,-11.45,0,*57
1488899305.77,15042,10.0,72644.0,-7.35,-11.77,-11.37,0,*57
1488899307.05,15043,10.0,72648.5,-7.35,-11.73,-11.33,0,*56
1488899308.31,15044,10.0,72648.3,-7.35,-11.59,-11.23,0,*58
1488899309.55,15045,10.0,72646.0,-7.33,-11.55,-11.41,0,*57
1488899310.81,15046,10.06,72654.0,-7.33,-11.67,-11.55,0,*50
1488899312.07,15047,10.0,72650.0,-7.33,-11.59,-11.33,0,*5C
1488899313.31,15048,10.0,72650.5,-7.33,-11.55,-11.19,0,*57